FW6934 Weather Reports


time (UTC)temp
F
wind
direction
speed
knots
gust
knots
rain 1hr
in
rain 24hr
in
rain mn
in
humidity
%
barometer
mb
20260903180528 58 252 2.6 8.7 0.00 0.43 0.16 85 997.6
20260903180100 58 174 3.5 13.9 0.00 0.53 0.16 85 997.5
20260903175502 58 194 2.6 14.8 0.00 0.53 0.16 86 997.4
20260903175010 58 149 1.7 10.4 0.00 0.53 0.16 87 997.6
20260903174549 58 126 3.5 10.4 0.00 0.53 0.16 87 997.7
20260903174057 58 186 0.9 4.3 0.00 0.53 0.16 88 997.5
20260903173506 58 238 0.9 10.4 0.00 0.53 0.16 88 997.6
20260903173043 58 113 2.6 10.4 0.00 0.53 0.16 89 997.5
20260903172548 57 194 0.9 7.8 0.00 0.53 0.16 89 997.5
20260903172055 56 220 1.7 7.0 0.00 0.53 0.16 89 997.5
20260903171528 56 194 0.0 5.2 0.00 0.53 0.16 89 997.5
20260903171035 56 163 0.9 7.0 0.00 0.53 0.16 89 997.5
20260903170546 56 191 1.7 7.0 0.00 0.53 0.16 89 997.5
20260903170011 56 226 0.0 5.2 0.01 0.55 0.16 89 997.5
20260903165512 56 147 0.9 5.2 0.01 0.55 0.16 90 997.6
20260903165026 56 181 0.9 3.5 0.01 0.55 0.16 90 997.8
20260903164554 56 203 0.9 8.7 0.01 0.55 0.16 90 997.9
20260903164103 55 154 3.5 8.7 0.01 0.55 0.16 90 997.9
20260903163509 56 234 1.7 4.3 0.01 0.55 0.16 90 998.0
20260903163047 55 46 0.0 4.3 0.01 0.55 0.16 90 998.0
20260903162554 55 171 0.0 4.3 0.01 0.55 0.16 91 998.0
20260903162100 54 207 0.9 7.0 0.02 0.55 0.16 90 998.0
20260903161528 54 212 0.9 7.0 0.02 0.55 0.16 90 998.2
20260903161032 54 211 0.0 2.6 0.03 0.55 0.16 90 998.0
20260903160540 54 211 0.9 2.6 0.04 0.55 0.16 90 998.2
20260903160003 54 217 0.0 5.2 0.03 0.54 0.15 90 998.1
20260903155516 54 200 0.0 2.6 0.03 0.54 0.15 90 998.0
20260903155023 54 200 0.0 3.5 0.03 0.54 0.15 90 998.0
20260903154556 54 200 0.0 3.5 0.04 0.54 0.15 90 998.0
20260903154048 54 158 0.0 7.0 0.04 0.54 0.15 90 998.0
20260903153557 54 157 0.9 7.8 0.04 0.54 0.15 90 998.1
20260903153037 54 199 0.9 7.8 0.04 0.54 0.15 90 998.0
20260903152541 53 168 0.9 7.8 0.04 0.54 0.15 90 997.9
20260903152049 53 180 1.7 10.4 0.04 0.53 0.14 90 997.8
20260903151521 54 147 2.6 10.4 0.04 0.53 0.14 90 997.7
20260903151029 53 167 2.6 10.4 0.03 0.52 0.13 90 997.6
20260903150526 53 252 3.5 7.8 0.02 0.51 0.12 90 997.7
20260903150105 53 202 2.6 7.8 0.02 0.51 0.12 90 997.7
20260903145506 53 203 3.5 8.7 0.03 0.51 0.12 90 997.4
20260903145102 53 211 3.5 11.3 0.03 0.51 0.12 90 997.5
20260903144540 54 243 3.5 11.3 0.02 0.50 0.11 90 997.5
20260903144046 54 215 2.6 8.7 0.03 0.50 0.11 90 997.4
20260903143554 54 154 2.6 10.4 0.03 0.50 0.11 90 997.3
20260903143022 54 140 0.9 10.4 0.03 0.50 0.11 90 997.2
20260903142530 54 199 1.7 7.8 0.03 0.50 0.11 90 997.3
20260903142040 54 271 1.7 7.8 0.02 0.49 0.10 90 997.3
20260903141608 54 184 1.7 8.7 0.02 0.49 0.10 90 997.2
20260903141004 54 165 1.7 8.7 0.02 0.49 0.10 90 997.1
20260903140523 54 221 3.5 8.7 0.02 0.49 0.10 90 997.1
20260903140048 54 196 2.6 8.7 0.02 0.49 0.10 90 997.2
20260903135556 54 182 2.6 8.7 0.02 0.48 0.09 90 997.1
20260903135006 54 193 3.5 10.4 0.02 0.48 0.09 90 996.9
20260903134546 54 188 2.6 8.7 0.03 0.48 0.09 90 996.9
20260903134044 54 218 1.7 8.7 0.02 0.47 0.08 90 996.9
20260903133552 54 208 2.6 6.1 0.04 0.47 0.08 90 997.0
20260903133011 54 190 2.6 7.0 0.05 0.47 0.08 90 996.9
20260903132602 54 223 1.7 7.0 0.06 0.47 0.08 90 997.0
20260903132008 54 205 1.7 11.3 0.06 0.47 0.08 89 996.8
20260903131601 54 189 3.5 11.3 0.06 0.47 0.08 89 996.7
20260903131049 54 172 2.6 9.6 0.07 0.47 0.08 89 996.7
20260903130551 54 175 1.7 11.3 0.07 0.47 0.08 89 996.8
20260903130034 54 248 2.6 11.3 0.07 0.47 0.08 89 996.8
20260903125544 54 196 3.5 7.8 0.06 0.46 0.07 89 996.8
20260903125052 54 229 1.7 4.3 0.06 0.46 0.07 89 996.7
20260903124524 54 166 0.9 4.3 0.05 0.45 0.06 89 996.9
20260903124029 54 119 0.9 7.0 0.04 0.44 0.06 89 997.0
20260903123533 54 140 1.7 9.6 0.03 0.43 0.04 89 997.0
20260903123105 54 155 1.7 9.6 0.01 0.41 0.03 89 997.0
20260903122513 54 180 2.6 7.8 0.01 0.41 0.02 89 997.0
20260903122022 54 225 0.9 7.8 0.01 0.41 0.02 89 997.1
20260903121559 54 209 1.7 8.7 0.01 0.41 0.02 89 997.0
20260903121052 54 163 1.7 8.7 0.00 0.40 0.02 89 996.9
20260903120600 54 273 0.9 8.7 0.00 0.40 0.01 89 997.0
20260903120030 54 184 1.7 7.0 0.00 0.40 0.01 89 997.0
20260903115539 54 143 1.7 7.0 0.00 0.40 0.01 89 997.0
20260903115045 54 150 1.7 9.6 0.00 0.40 0.01 89 996.9
20260903114522 54 213 1.7 6.1 0.00 0.40 0.01 89 997.0
20260903114020 54 169 1.7 7.0 0.00 0.40 0.01 89 997.0
20260903113527 54 186 0.9 8.7 0.00 0.40 0.01 89 997.0
20260903113058 54 123 2.6 11.3 0.00 0.40 0.01 89 997.1
20260903112502 54 218 2.6 10.4 0.00 0.40 0.01 89 997.1
20260903112010 54 159 1.7 8.7 0.00 0.40 0.01 89 997.1
20260903111550 54 167 3.5 8.7 0.00 0.40 0.01 89 997.0
20260903111057 54 143 1.7 11.3 0.00 0.40 0.01 89 996.9
20260903110558 54 161 3.5 11.3 0.00 0.40 0.01 89 996.9
20260903110030 54 132 0.9 6.1 0.00 0.40 0.01 89 996.9
20260903105536 54 194 3.5 6.1 0.00 0.40 0.01 89 997.0
20260903105039 54 180 1.7 6.1 0.00 0.40 0.01 89 997.1
20260903104508 54 144 0.0 8.7 0.00 0.40 0.01 89 997.0
20260903104028 54 173 2.6 8.7 0.00 0.40 0.01 89 997.1
20260903103521 54 170 1.7 12.2 0.01 0.40 0.01 89 997.1
20260903103058 54 131 3.5 12.2 0.01 0.40 0.01 89 997.2
20260903102515 54 136 2.6 10.4 0.01 0.40 0.01 89 997.0
20260903102010 54 213 2.6 11.3 0.01 0.40 0.01 89 997.1
20260903101551 54 174 3.5 11.3 0.01 0.40 0.01 89 997.1
20260903101057 54 207 0.0 12.2 0.01 0.40 0.01 89 997.1
20260903100607 54 196 1.7 7.8 0.01 0.40 0.01 89 997.0
20260903100039 54 219 1.7 7.8 0.01 0.40 0.01 89 996.9
20260903095533 54 190 0.9 4.3 0.01 0.40 0.01 89 997.0
20260903095044 54 252 0.9 6.1 0.01 0.40 0.01 89 996.9
20260903094515 55 159 1.7 6.1 0.01 0.40 0.01 89 996.9
20260903094026 55 98 0.0 7.8 0.01 0.40 0.01 89 997.0
20260903093534 55 228 1.7 7.8 0.00 0.39 0.00 89 997.0
20260903093102 54 108 1.7 7.0 0.00 0.39 0.00 89 997.1
20260903092557 54 211 1.7 7.0 0.00 0.39 0.00 89 997.0
20260903092003 55 175 0.9 6.1 0.00 0.39 0.00 89 997.0
20260903091552 55 211 0.9 7.8 0.00 0.39 0.00 89 997.1
20260903091043 55 227 1.7 9.6 0.00 0.39 0.00 89 997.0
20260903090550 55 205 2.6 16.5 0.00 0.39 0.00 89 997.1
20260903090027 55 168 1.7 15.6 0.00 0.39 0.00 89 997.2
20260903085527 55 165 2.6 9.6 0.00 0.39 0.00 89 997.2
20260903085019 55 173 1.7 9.6 0.00 0.39 0.00 89 997.2
20260903084602 55 175 0.9 3.5 0.00 0.39 0.00 89 997.2
20260903084018 55 213 0.9 6.1 0.00 0.39 0.00 89 997.2
20260903083509 55 132 0.9 7.8 0.00 0.39 0.00 89 997.3
20260903083050 55 238 1.7 7.8 0.00 0.39 0.00 89 997.3
20260903082551 55 160 1.7 7.0 0.00 0.39 0.00 89 997.3
20260903082054 55 206 1.7 7.8 0.00 0.39 0.00 89 997.3
20260903081534 55 167 1.7 8.7 0.00 0.39 0.00 89 997.3
20260903081036 55 137 1.7 5.2 0.00 0.39 0.00 89 997.2
20260903080542 55 148 1.7 5.2 0.00 0.39 0.00 89 997.3
20260903080003 55 192 0.9 3.5 0.00 0.39 0.00 89 997.4
20260903075511 55 179 0.0 6.1 0.00 0.39 0.00 89 997.5
20260903075029 55 246 1.7 6.1 0.00 0.39 0.00 89 997.5
20260903074553 55 175 1.7 7.0 0.00 0.39 0.00 89 997.6
20260903074003 55 188 0.9 7.0 0.00 0.39 0.00 89 997.6
20260903073512 55 160 0.9 6.1 0.00 0.39 0.00 89 997.4
20260903072537 55 184 0.0 5.2 0.00 0.39 0.00 89 997.4
20260903072045 55 167 0.9 6.1 0.00 0.39 0.00 89 997.4
20260903071520 55 200 2.6 7.0 0.00 0.39 0.00 89 997.4
20260903071025 55 267 0.9 3.5 0.00 0.39 0.00 89 997.3
20260903070527 55 153 0.9 6.1 0.00 0.39 0.00 89 997.3
20260903070100 55 224 1.7 6.1 0.00 0.39 0.39 89 997.2
20260903065600 55 200 0.0 5.2 0.00 0.39 0.39 89 997.2
20260903065004 55 55 0.9 3.5 0.00 0.39 0.39 89 997.2
20260903064540 55 215 0.9 4.3 0.00 0.39 0.39 89 997.3
20260903064047 55 224 0.9 4.3 0.00 0.39 0.39 89 997.4
20260903063550 55 203 0.9 7.8 0.00 0.39 0.39 89 997.3
20260903063028 55 146 1.7 6.1 0.00 0.39 0.39 89 997.3
20260903062534 55 228 1.7 7.8 0.00 0.39 0.39 89 997.3
20260903062040 55 209 0.0 7.8 0.01 0.39 0.39 89 997.3
20260903061512 55 184 0.0 5.2 0.01 0.39 0.39 89 997.4
20260903061024 55 177 1.7 6.1 0.01 0.39 0.39 89 997.5
20260903060528 55 160 0.9 7.0 0.01 0.39 0.39 89 997.5
20260903060120 55 252 0.0 7.0 0.01 0.39 0.39 89 997.4
20260903055501 55 214 0.9 4.3 0.01 0.39 0.39 89 997.5
20260903055012 55 164 1.7 7.8 0.01 0.39 0.39 89 997.5
20260903054546 56 203 0.9 7.8 0.01 0.39 0.39 89 997.5
20260903054054 56 279 0.0 3.5 0.01 0.39 0.39 89 997.4
20260903053559 56 207 0.9 3.5 0.01 0.39 0.39 89 997.4
20260903053038 56 235 0.0 7.0 0.01 0.39 0.39 89 997.4
20260903052541 56 181 0.9 7.0 0.01 0.39 0.39 89 997.4
20260903052048 56 174 1.7 7.0 0.00 0.38 0.38 89 997.4
20260903051517 56 205 0.9 5.2 0.00 0.38 0.38 89 997.4
20260903051024 56 190 0.0 3.5 0.00 0.38 0.38 89 997.4
20260903050529 56 168 1.7 3.5 0.00 0.38 0.38 89 997.4
20260903050001 56 175 0.0 3.5 0.00 0.38 0.38 89 997.3
20260903045513 56 207 0.0 3.5 0.00 0.38 0.38 89 997.3
20260903045020 56 176 0.0 1.7 0.00 0.38 0.38 89 997.3
20260903044552 56 175 0.0 3.5 0.00 0.38 0.38 89 997.3
20260903044103 56 174 0.0 5.2 0.00 0.38 0.38 89 997.2
20260903043549 56 173 0.0 5.2 0.00 0.38 0.38 89 997.3
20260903043016 56 236 0.0 4.3 0.00 0.38 0.38 89 997.2
20260903042525 56 151 0.0 4.3 0.00 0.38 0.38 89 997.1
20260903042032 56 167 0.0 5.2 0.00 0.38 0.38 89 997.0
20260903041559 56 170 1.7 5.2 0.00 0.38 0.38 88 997.0
20260903041007 56 258 0.9 2.6 0.00 0.38 0.38 88 997.0
20260903040513 56 259 0.0 6.1 0.00 0.38 0.38 88 996.9
20260903040036 56 251 0.9 6.1 0.00 0.38 0.38 88 997.0
20260903035541 56 211 0.0 2.6 0.00 0.38 0.38 88 996.9
20260903035049 56 190 0.0 2.6 0.00 0.38 0.38 88 996.9
20260903034502 56 190 0.0 1.7 0.00 0.38 0.38 88 996.6
20260903034007 56 190 0.0 1.7 0.00 0.38 0.38 88 996.6
20260903033523 56 190 0.0 0.0 0.00 0.38 0.38 88 996.5
20260903033053 57 189 0.0 0.0 0.00 0.38 0.38 87 996.4
20260903032504 57 189 0.0 1.7 0.00 0.38 0.38 88 996.3
20260903032013 57 189 0.0 2.6 0.00 0.38 0.38 87 996.3
20260903031549 57 189 0.0 5.2 0.00 0.38 0.38 87 996.2
20260903031055 57 183 0.0 5.2 0.00 0.38 0.38 87 996.2
20260903030603 57 205 0.0 2.6 0.00 0.38 0.38 87 996.1
20260903030046 57 205 0.0 5.2 0.00 0.38 0.38 87 996.1
20260903025541 57 175 0.9 5.2 0.00 0.38 0.38 87 996.0
20260903025051 58 174 0.9 4.3 0.00 0.38 0.38 87 996.0
20260903024529 58 162 0.0 2.6 0.00 0.38 0.38 87 995.9
20260903024036 58 172 0.0 5.2 0.00 0.38 0.38 87 995.7
20260903023541 58 172 1.7 5.2 0.00 0.38 0.38 87 995.7
20260903023008 58 202 0.0 2.6 0.00 0.38 0.38 86 995.8
20260903022524 58 202 0.9 3.5 0.00 0.38 0.38 87 995.7
20260903022035 59 200 0.9 3.5 0.00 0.38 0.38 87 995.6
20260903021502 59 150 0.0 1.7 0.00 0.38 0.38 87 995.5
20260903021007 59 150 0.0 6.1 0.00 0.38 0.38 87 995.6
20260903020515 59 150 0.0 6.1 0.00 0.38 0.38 87 995.6
20260903020051 59 162 0.9 6.1 0.00 0.38 0.38 86 995.6
20260903015557 59 170 0.9 5.2 0.00 0.38 0.38 87 995.5
20260903015001 59 202 0.0 1.7 0.00 0.38 0.38 87 995.4
20260903014545 60 196 0.0 1.7 0.00 0.38 0.38 87 995.4
20260903014043 60 196 0.0 1.7 0.00 0.38 0.38 87 995.3
20260903013551 60 196 0.0 0.9 0.00 0.38 0.38 87 995.4
20260903013028 60 196 0.0 2.6 0.00 0.38 0.38 86 995.3
20260903012531 60 196 0.0 3.5 0.00 0.38 0.38 86 995.3
20260903012040 60 215 0.0 2.6 0.00 0.38 0.38 87 995.2
20260903011518 60 228 0.0 2.6 0.00 0.38 0.38 87 995.2
20260903011024 60 228 0.0 3.5 0.00 0.38 0.38 87 995.2
20260903010530 60 227 0.9 3.5 0.00 0.38 0.38 87 995.2
20260903010046 60 160 0.9 4.3 0.00 0.38 0.38 87 995.1
20260903005553 60 189 0.0 7.0 0.00 0.38 0.38 87 995.2
20260903005103 60 178 1.7 7.0 0.00 0.38 0.38 87 995.2
20260903004538 60 182 0.9 4.3 0.00 0.38 0.38 87 995.1
20260903004041 60 180 0.9 6.1 0.00 0.38 0.38 87 995.1
20260903003551 60 166 0.0 6.1 0.00 0.38 0.38 87 995.0
20260903003025 60 275 1.7 5.2 0.00 0.38 0.38 87 995.0
20260903002531 59 175 0.0 3.5 0.00 0.38 0.38 87 994.9
20260903002038 59 183 0.9 4.3 0.00 0.38 0.38 87 994.9
20260903001504 59 155 0.9 4.3 0.00 0.38 0.38 88 994.9
20260903001012 59 175 1.7 4.3 0.00 0.38 0.38 88 994.8
20260903000524 59 149 0.0 2.6 0.00 0.38 0.38 88 994.8
20260903000059 59 146 0.9 3.5 0.00 0.38 0.38 88 994.8
20260902235602 59 209 0.0 7.0 0.01 0.38 0.38 88 994.8
20260902235008 59 201 0.9 7.0 0.01 0.38 0.38 88 994.8
20260902234543 59 154 0.9 8.7 0.01 0.38 0.38 88 994.8
20260902234049 59 160 2.6 8.7 0.01 0.38 0.38 89 994.8
20260902233555 59 113 0.9 3.5 0.01 0.38 0.38 89 994.7
20260902233047 59 111 1.7 4.3 0.01 0.38 0.38 89 994.6
20260902232543 59 165 1.7 4.3 0.04 0.38 0.38 89 994.7
20260902232049 59 189 1.7 4.3 0.07 0.38 0.38 89 994.7
20260902231527 59 117 0.0 4.3 0.08 0.38 0.38 89 994.8
20260902231039 59 177 1.7 4.3 0.08 0.38 0.38 89 994.7
20260902230548 59 215 0.9 2.6 0.08 0.38 0.38 89 994.7
20260902230010 59 200 0.0 4.3 0.07 0.37 0.38 89 994.7
20260902225525 58 200 0.0 5.2 0.07 0.37 0.37 89 994.4
20260902225029 58 194 0.9 5.2 0.07 0.37 0.37 89 994.3
20260902224605 58 212 0.0 6.1 0.07 0.37 0.37 89 994.3
20260902224000 58 201 0.9 3.5 0.07 0.37 0.37 89 994.3
20260902223503 58 168 0.9 3.5 0.07 0.37 0.37 89 994.3
20260902223037 58 223 0.9 6.1 0.07 0.37 0.37 89 994.3
20260902222545 58 261 1.7 7.0 0.03 0.33 0.34 89 994.2
20260902222050 58 24 3.5 10.4 0.01 0.31 0.31 89 994.0
20260902221524 58 209 3.5 10.4 0.00 0.30 0.30 89 993.8
20260902221029 58 160 3.5 8.7 0.00 0.30 0.30 89 993.7
20260902220536 58 189 1.7 7.8 0.00 0.30 0.30 89 993.7
20260902220025 58 319 0.9 8.7 0.00 0.30 0.30 89 993.7
20260902215510 58 223 1.7 14.8 0.00 0.30 0.30 89 993.6
20260902215031 58 200 5.2 14.8 0.01 0.30 0.30 89 993.6
20260902214607 58 161 2.6 17.4 0.01 0.30 0.30 89 993.6
20260902214055 58 296 3.5 17.4 0.01 0.30 0.30 89 993.6
20260902213603 58 193 0.9 14.8 0.01 0.30 0.30 89 993.5
20260902213034 58 151 5.2 15.6 0.01 0.30 0.30 89 993.6
20260902212546 58 355 1.7 12.2 0.01 0.30 0.30 89 993.6
20260902212045 58 75 3.5 12.2 0.01 0.30 0.30 89 993.5
20260902211521 57 277 0.9 9.6 0.01 0.30 0.30 89 993.6
20260902211027 57 134 2.6 8.7 0.01 0.30 0.30 89 993.6
20260902210533 57 327 2.6 8.7 0.01 0.30 0.30 89 993.5
20260902210045 57 150 1.7 13.0 0.01 0.30 0.30 89 993.5
20260902205550 57 355 0.9 13.0 0.01 0.30 0.30 89 993.6
20260902205056 57 169 0.9 7.0 0.00 0.28 0.28 89 993.5
20260902204529 57 255 3.5 7.8 0.00 0.28 0.28 89 993.5
20260902204038 57 360 0.9 7.8 0.01 0.28 0.28 89 993.4
20260902203548 57 184 2.6 7.8 0.01 0.28 0.28 89 993.5
20260902203003 57 316 1.7 7.0 0.01 0.28 0.28 89 993.5
20260902202510 57 196 0.9 7.8 0.02 0.28 0.28 89 993.4
20260902202023 57 286 0.0 7.0 0.03 0.28 0.28 89 993.4
20260902201552 57 225 1.7 7.0 0.04 0.28 0.28 89 993.3
20260902201056 57 219 0.9 7.0 0.05 0.28 0.28 89 993.1
20260902200502 57 319 1.7 8.7 0.06 0.28 0.28 89 993.2
20260902200035 57 74 3.5 8.7 0.07 0.28 0.28 89 993.1
20260902195541 57 63 2.6 6.1 0.09 0.28 0.28 89 993.2
20260902195050 57 153 1.7 9.6 0.10 0.28 0.28 89 993.1
20260902194525 57 19 2.6 9.6 0.12 0.28 0.28 89 993.1
20260902194013 57 294 1.7 7.8 0.12 0.28 0.28 89 993.2
20260902193520 57 111 0.9 9.6 0.12 0.28 0.28 88 993.2
20260902193058 57 97 0.0 11.3 0.13 0.28 0.28 88 993.3
20260902192603 57 74 0.9 11.3 0.13 0.27 0.27 88 993.3
20260902192004 57 355 0.9 4.3 0.12 0.26 0.26 89 993.5
20260902191544 57 57 1.7 4.3 0.12 0.25 0.25 88 993.5
20260902191046 57 258 0.9 4.3 0.12 0.24 0.24 88 993.6
20260902190550 57 183 0.9 4.3 0.11 0.23 0.23 88 993.9
20260902190022 57 342 0.0 4.3 0.10 0.22 0.22 88 994.0
20260902185530 57 56 0.9 4.3 0.09 0.20 0.20 88 994.1
20260902185026 57 209 1.7 7.0 0.08 0.19 0.19 88 994.2
20260902184604 57 325 0.9 7.0 0.07 0.17 0.18 88 994.1
20260902184018 57 236 0.9 3.5 0.07 0.16 0.16 88 994.0
20260902183503 57 223 0.9 1.7 0.07 0.16 0.16 88 993.9
20260902183041 57 245 0.9 3.5 0.07 0.15 0.15 87 993.9
20260902182546 57 123 0.9 4.3 0.07 0.14 0.14 87 993.8
20260902182054 57 50 0.0 6.1 0.07 0.14 0.14 87 994.0
20260902181519 57 156 2.6 6.1 0.08 0.13 0.13 87 994.1
20260902181024 57 5 0.9 3.5 0.09 0.12 0.12 87 994.2